Alexandria, MN

11:10 PM CST on December 09, 2019 (GMT -0600)
Chandler

Weather History for KAXN - October, 2019

Change the Weather History Date:

Friday, October 18, 2019

  Actual Average Record
Temperature  
Mean Temperature 54 °F -  
Max Temperature 64 °F 51 °F 77 °F (1953)
Min Temperature 44 °F 33 °F 15 °F (1972)
Degree Days  
Heating Degree Days 11    
Growing Degree Days 4 (Base 50)    
Moisture  
Dew Point 42 °F    
Average Humidity 69    
Maximum Humidity 83    
Minimum Humidity 50    
Precipitation  
Precipitation 0.00 in - - ()
Sea Level Pressure  
Sea Level Pressure 29.58 in    
Wind  
Wind Speed 13 mph ()    
Max Wind Speed 25 mph    
Max Gust Speed 39 mph    
Visibility 10.0 miles    
Events      
Averages and records for this station are not official NWS values.
T = Trace of Precipitation, MM = Missing Value Source: Averaged Metar Reports

Daily Weather History Graph

Daily Weather History Graph

Search for Another Location

Airport or City:

Astronomy

Oct. 18, 2019 Rise Set
Actual Time 7:42 AM CDT 6:30 PM CDT
Civil Twilight 7:11 AM CDT 7:00 PM CDT
Nautical Twilight 6:37 AM CDT 7:35 PM CDT
Astronomical Twilight 6:02 AM CDT 8:09 PM CDT
Moon 9:35 PM CDT (10/18) 12:27 PM CDT (10/18)
Length of Visible Light 11h 48m
Length of Day
10h 48m
Waning Gibbous, 78% of the Moon is Illuminated
Oct 18
Waning Gibbous
Oct 21
Last Quarter
Oct 27
New
Nov 4
First Quarter
Nov 12
Full

Hourly Weather History & Observations

Time (CDT) Temp. Windchill Dew Point Humidity Pressure Visibility Wind Dir Wind Speed Gust Speed Precip Events Conditions
12:53 AM 46.9 °F - 37.9 °F 71% 29.76 in 10.0 mi SE 16.1 mph 24.2 mph N/A   Clear
1:53 AM 46.0 °F 39.9 °F 37.9 °F 73% 29.75 in 10.0 mi SE 13.8 mph 21.9 mph N/A   Clear
2:53 AM 45.0 °F 38.9 °F 37.9 °F 76% 29.73 in 10.0 mi SE 12.7 mph 21.9 mph N/A   Clear
3:53 AM 45.0 °F 38.2 °F 37.9 °F 76% 29.71 in 10.0 mi SE 15.0 mph - N/A   Clear
4:53 AM 44.1 °F 37.1 °F 37.9 °F 79% 29.68 in 10.0 mi SE 15.0 mph 25.3 mph N/A   Clear
5:53 AM 44.1 °F 36.2 °F 39.0 °F 82% 29.66 in 10.0 mi SE 18.4 mph 25.3 mph N/A   Clear
6:53 AM 44.1 °F 37.1 °F 39.0 °F 82% 29.65 in 10.0 mi SE 15.0 mph 20.7 mph N/A   Clear
7:53 AM 44.1 °F 37.1 °F 39.0 °F 82% 29.63 in 10.0 mi SE 15.0 mph - N/A   Clear
8:53 AM 46.0 °F 39.0 °F 39.9 °F 79% 29.61 in 10.0 mi SE 17.3 mph 24.2 mph N/A   Clear
9:53 AM 48.9 °F - 41.0 °F 74% 29.60 in 10.0 mi SSE 20.7 mph 27.6 mph N/A   Clear
10:53 AM 54.0 °F - 43.0 °F 66% 29.59 in 10.0 mi SSE 21.9 mph 31.1 mph N/A   Clear
11:53 AM 55.9 °F - 43.0 °F 62% 29.56 in 10.0 mi SSE 17.3 mph 31.1 mph N/A   Clear
12:53 PM 60.1 °F - 43.0 °F 53% 29.52 in 10.0 mi SSE 21.9 mph 32.2 mph N/A   Clear
1:53 PM 61.0 °F - 44.1 °F 54% 29.49 in 10.0 mi SSE 24.2 mph 32.2 mph N/A   Clear
2:53 PM 63.0 °F - 44.1 °F 50% 29.44 in 10.0 mi SSE 25.3 mph 39.1 mph N/A   Clear
3:53 PM 64.0 °F - 45.0 °F 50% 29.48 in 10.0 mi South 17.3 mph 28.8 mph N/A   Clear
4:53 PM 63.0 °F - 46.0 °F 54% 29.48 in 10.0 mi SSE 12.7 mph - N/A   Overcast
5:53 PM 61.0 °F - 46.0 °F 58% 29.48 in 10.0 mi ESE 5.8 mph - N/A   Overcast
6:53 PM 57.9 °F - 46.0 °F 65% 29.49 in 10.0 mi South 4.6 mph - N/A   Overcast
7:53 PM 57.0 °F - 46.0 °F 67% 29.51 in 10.0 mi South 4.6 mph - N/A   Overcast
8:53 PM 52.0 °F - 44.1 °F 74% 29.53 in 10.0 mi SW 6.9 mph - N/A   Clear
9:53 PM 51.1 °F - 44.1 °F 77% 29.53 in 10.0 mi WSW 5.8 mph - N/A   Clear
10:53 PM 53.1 °F - 46.0 °F 77% 29.55 in 10.0 mi West 10.4 mph - N/A   Clear
11:53 PM 50.0 °F - 45.0 °F 83% 29.56 in 10.0 mi West 8.1 mph - N/A   Clear